Weather History for KMCJ - December, 2012

Change the Weather History Date:

Tuesday, December 4, 2012

  Actual Average (KHOU) Record (KHOU)
Temperature  
Mean Temperature 72 °F 56 °F  
Max Temperature 80 °F 67 °F 83 °F (2012)
Min Temperature 64 °F 47 °F 27 °F (1897)
Degree Days  
Heating Degree Days 0 10  
Month to date heating degree days 37  
Since 1 July heating degree days 222  
Cooling Degree Days 7    
Growing Degree Days 22 (Base 50)    
Moisture  
Dew Point 66 °F    
Average Humidity 90    
Maximum Humidity 100    
Minimum Humidity 57    
Precipitation  
Precipitation 0.04 in 0.13 in 1.96 in (1930)
Month to date precipitation 0.55  
Year to date precipitation 46.58  
Sea Level Pressure  
Sea Level Pressure 30.08 in    
Wind  
Wind Speed 5 mph (SSW)    
Max Wind Speed 12 mph    
Max Gust Speed 16 mph    
Visibility 5 miles    
Events      
T = Trace of Precipitation, MM = Missing Value Source: NWS Daily Summary

Daily Weather History Graph

Daily Weather History Graph

Search for Another Location

Airport or City:

Trip Planner

Search our weather history database for the weather conditions in past years. The results will help you decide how hot, cold, wet, or windy it might be!

Date:

Astronomy

Dec. 04, 2012 Rise Set
Actual Time 7:01 AM CST 5:22 PM CST
Civil Twilight 6:35 AM CST 5:48 PM CST
Nautical Twilight 6:06 AM CST 6:17 PM CST
Astronomical Twilight 5:37 AM CST 6:46 PM CST
Moon 10:53 PM CST (12/4) 11:11 AM CST (12/4)
Length of Visible Light 11h 12m
Length of Day
10h 20m
Waning Gibbous, 69% of the Moon is Illuminated
Dec 4
Waning Gibbous
Dec 6
Last Quarter
Dec 13
New
Dec 19
First Quarter
Dec 28
Full

Hourly Weather History & Observations

Time (CST) Temp. Heat Index Dew Point Humidity Pressure Visibility Wind Dir Wind Speed Gust Speed Precip Events Conditions
12:15 AM 68.0 °F - 68.0 °F 100% 30.01 in 4.0 mi South 8.1 mph - N/A   Mostly Cloudy
12:35 AM 68.0 °F - 68.0 °F 100% 30.01 in 0.8 mi South 11.5 mph - N/A   Overcast
12:55 AM 68.0 °F - 68.0 °F 100% 30.01 in 0.2 mi South 8.1 mph - N/A   Overcast
1:15 AM 68.0 °F - 68.0 °F 100% 30.01 in 0.2 mi South 6.9 mph - N/A   Overcast
1:35 AM 68.0 °F - 68.0 °F 100% 30.01 in 0.5 mi South 6.9 mph - N/A   Overcast
1:55 AM 68.0 °F - 68.0 °F 100% 30.02 in 0.2 mi South 8.1 mph - N/A   Overcast
2:15 AM 68.0 °F - 68.0 °F 100% 30.02 in 0.2 mi South 6.9 mph - N/A   Overcast
2:55 AM 68.0 °F - 68.0 °F 100% 30.03 in 0.8 mi Calm Calm - N/A   Overcast
3:15 AM 68.0 °F - 68.0 °F 100% 30.03 in 0.2 mi South 6.9 mph - N/A   Overcast
3:35 AM 68.0 °F - 68.0 °F 100% 30.03 in 0.2 mi South 6.9 mph - N/A   Overcast
3:55 AM 68.0 °F - 68.0 °F 100% 30.03 in 0.2 mi South 5.8 mph - N/A   Overcast
4:15 AM 68.0 °F - 68.0 °F 100% 30.03 in 0.2 mi SSE 5.8 mph - N/A   Overcast
4:35 AM 68.0 °F - 68.0 °F 100% 30.04 in 0.2 mi SSE 3.5 mph - N/A   Overcast
4:55 AM 68.0 °F - 68.0 °F 100% 30.06 in 0.2 mi Calm Calm - N/A   Overcast
5:15 AM 68.0 °F - 68.0 °F 100% 30.05 in 0.2 mi SE 4.6 mph - N/A   Overcast
5:35 AM 68.0 °F - 68.0 °F 100% 30.05 in 0.2 mi SE 3.5 mph - N/A   Overcast
5:55 AM 68.0 °F - 68.0 °F 100% 30.06 in 0.2 mi SSE 3.5 mph - N/A   Overcast
6:15 AM 68.0 °F - 68.0 °F 100% 30.07 in 0.2 mi Calm Calm - N/A   Overcast
6:35 AM 68.0 °F - 68.0 °F 100% 30.07 in 0.2 mi Calm Calm - N/A   Overcast
6:55 AM 68.0 °F - 68.0 °F 100% 30.07 in 0.2 mi Calm Calm - N/A   Overcast
7:15 AM 68.0 °F - 68.0 °F 100% 30.07 in 0.2 mi Calm Calm - N/A   Overcast
7:35 AM 68.0 °F - 68.0 °F 100% 30.08 in 0.2 mi South 3.5 mph - N/A   Overcast
7:55 AM 68.0 °F - 68.0 °F 100% 30.09 in 0.2 mi Calm Calm - N/A   Overcast
8:15 AM 68.0 °F - 68.0 °F 100% 30.09 in 0.2 mi SSE 5.8 mph - N/A   Overcast
8:35 AM 68.0 °F - 68.0 °F 100% 30.10 in 0.2 mi Calm Calm - N/A   Overcast
8:55 AM 69.8 °F - 69.8 °F 100% 30.11 in 0.2 mi Calm Calm - N/A   Overcast
9:15 AM 71.6 °F - 71.6 °F 100% 30.12 in 2.5 mi Calm Calm - N/A   Overcast
9:35 AM 71.6 °F - 71.6 °F 100% 30.13 in 4.0 mi Calm Calm - N/A   Mostly Cloudy
9:55 AM 73.4 °F - 71.6 °F 94% 30.13 in 5.0 mi Calm Calm - N/A   Scattered Clouds
10:15 AM 75.2 °F - 69.8 °F 83% 30.13 in 5.0 mi Calm Calm - N/A   Mostly Cloudy
10:35 AM 75.2 °F - 69.8 °F 83% 30.13 in 7.0 mi West 3.5 mph - N/A   Mostly Cloudy
10:55 AM 77.0 °F - 68.0 °F 74% 30.13 in 7.0 mi WSW 5.8 mph - N/A   Scattered Clouds
11:15 AM 77.0 °F - 68.0 °F 74% 30.12 in 8.0 mi West 6.9 mph - N/A   Scattered Clouds
11:35 AM 77.0 °F - 68.0 °F 74% 30.11 in 8.0 mi WSW 5.8 mph - N/A   Partly Cloudy
11:55 AM 78.8 °F - 66.2 °F 65% 30.09 in 9.0 mi SW 4.6 mph - N/A   Clear
12:15 PM 80.6 °F 82.3 °F 64.4 °F 58% 30.08 in 9.0 mi WSW 6.9 mph - N/A   Scattered Clouds
12:35 PM 80.6 °F 82.3 °F 64.4 °F 58% 30.08 in 9.0 mi WNW 4.6 mph - N/A   Scattered Clouds
12:55 PM 80.6 °F 82.3 °F 64.4 °F 58% 30.07 in 10.0 mi NW 5.8 mph - N/A   Scattered Clouds
1:15 PM 78.8 °F - 62.6 °F 57% 30.05 in 10.0 mi WNW 5.8 mph - N/A   Scattered Clouds
1:35 PM 77.0 °F - 64.4 °F 65% 30.04 in 10.0 mi WNW 4.6 mph - N/A   Clear
1:55 PM 77.0 °F - 64.4 °F 65% 30.05 in 10.0 mi WNW 3.5 mph - N/A   Clear
2:15 PM 77.0 °F - 64.4 °F 65% 30.05 in 10.0 mi North 4.6 mph - N/A   Clear
2:35 PM 75.2 °F - 64.4 °F 69% 30.05 in 9.0 mi Calm Calm - N/A   Partly Cloudy
2:55 PM 75.2 °F - 64.4 °F 69% 30.06 in 7.0 mi SW 10.4 mph 16.1 mph N/A   Scattered Clouds
3:15 PM 69.8 °F - 59.0 °F 68% 30.05 in 6.0 mi South 6.9 mph 16.1 mph N/A   Overcast
3:35 PM 68.0 °F - 62.6 °F 83% 30.07 in 8.0 mi South 4.6 mph - N/A   Mostly Cloudy
3:55 PM 68.0 °F - 62.6 °F 83% 30.06 in 2.5 mi East 8.1 mph - N/A   Mostly Cloudy
4:15 PM 66.2 °F - 64.4 °F 94% 30.06 in 5.0 mi South 11.5 mph - N/A   Mostly Cloudy
4:35 PM 66.2 °F - 64.4 °F 94% 30.07 in 5.0 mi South 10.4 mph - 0.01 in   Mostly Cloudy
4:55 PM 66.2 °F - 62.6 °F 88% 30.06 in 6.0 mi ESE 9.2 mph - 0.02 in   Mostly Cloudy
5:35 PM 66.2 °F - 62.6 °F 88% 30.08 in 8.0 mi WNW 3.5 mph - 0.01 in   Mostly Cloudy
5:55 PM 66.2 °F - 64.4 °F 94% 30.08 in 6.0 mi NW 4.6 mph - 0.01 in   Mostly Cloudy
6:15 PM 66.2 °F - 64.4 °F 94% 30.10 in 7.0 mi North 6.9 mph - N/A   Overcast
6:35 PM 66.2 °F - 64.4 °F 94% 30.10 in 6.0 mi NW 3.5 mph - 0.01 in   Mostly Cloudy
6:55 PM 66.2 °F - 64.4 °F 94% 30.11 in 10.0 mi North 4.6 mph - 0.01 in   Mostly Cloudy
7:15 PM 66.2 °F - 64.4 °F 94% 30.11 in 9.0 mi Calm Calm - N/A   Scattered Clouds
7:35 PM 66.2 °F - 64.4 °F 94% 30.12 in 8.0 mi Calm Calm - N/A   Scattered Clouds
7:55 PM 66.2 °F - 64.4 °F 94% 30.12 in 10.0 mi Calm Calm - N/A   Mostly Cloudy
8:15 PM 66.2 °F - 64.4 °F 94% 30.12 in 9.0 mi Calm Calm - N/A   Mostly Cloudy
8:35 PM 66.2 °F - 64.4 °F 94% 30.11 in 8.0 mi SW 4.6 mph - N/A   Partly Cloudy
8:55 PM 66.2 °F - 64.4 °F 94% 30.12 in 9.0 mi South 4.6 mph - N/A   Partly Cloudy
9:15 PM 66.2 °F - 64.4 °F 94% 30.12 in 7.0 mi WNW 4.6 mph - N/A   Mostly Cloudy
9:35 PM 66.2 °F - 64.4 °F 94% 30.13 in 7.0 mi WNW 5.8 mph - N/A   Overcast
9:55 PM 66.2 °F - 64.4 °F 94% 30.13 in 7.0 mi Calm Calm - N/A   Overcast
10:15 PM 66.2 °F - 64.4 °F 94% 30.13 in 6.0 mi Calm Calm - N/A   Overcast
10:35 PM 66.2 °F - 64.4 °F 94% 30.12 in 8.0 mi Calm Calm - N/A   Overcast
10:55 PM 66.2 °F - 64.4 °F 94% 30.11 in 5.0 mi SE 4.6 mph - N/A   Scattered Clouds
11:15 PM 64.4 °F - 64.4 °F 100% 30.12 in 4.0 mi Calm Calm - N/A   Clear
11:35 PM 64.4 °F - 64.4 °F 100% 30.12 in 5.0 mi Calm Calm - N/A   Mostly Cloudy
11:55 PM 66.2 °F - 64.4 °F 94% 30.12 in 4.0 mi WNW 4.6 mph - N/A   Overcast